Time,TemperatureF,DewpointF,PressureIn,WindDirection,WindDirectionDegrees,WindSpeedMPH,WindSpeedGustMPH,Humidity,HourlyPrecipIn,Conditions,Clouds,dailyrainin,SoftwareType,DateUTC
2013-03-13 00:00:00,46.2,39.1,29.84,North,0,0.0,0.0,76,0.00,,OVC,0.00,VWS V14.00,2013-03-13 04:00:00,
2013-03-13 00:05:00,45.6,38.5,29.84,North,0,0.0,0.0,76,0.00,,OVC,0.00,VWS V14.00,2013-03-13 04:05:00,
2013-03-13 00:10:00,45.5,38.4,29.84,North,0,3.5,3.5,76,0.00,,OVC,0.00,VWS V14.00,2013-03-13 04:10:00,
2013-03-13 00:15:00,45.1,37.7,29.84,NNE,22,1.5,1.5,75,0.00,,OVC,0.00,VWS V14.00,2013-03-13 04:15:00,
2013-03-13 00:20:00,45.1,38.0,29.84,North,0,0.0,0.0,76,0.00,,OVC,0.00,VWS V14.00,2013-03-13 04:20:00,
2013-03-13 00:25:00,44.9,37.8,29.84,NNW,338,4.6,4.6,76,0.00,,OVC,0.00,VWS V14.00,2013-03-13 04:25:00,
2013-03-13 00:30:00,44.6,37.8,29.84,North,0,0.0,0.0,77,0.00,,OVC,0.00,VWS V14.00,2013-03-13 04:30:00,
2013-03-13 00:35:00,44.4,37.7,29.84,NNW,338,0.0,0.0,77,0.00,,OVC,0.00,VWS V14.00,2013-03-13 04:35:00,
2013-03-13 00:40:00,44.0,37.6,29.84,NW,315,0.0,0.0,78,0.00,,OVC,0.00,VWS V14.00,2013-03-13 04:40:00,
2013-03-13 00:45:00,43.7,37.3,29.84,NE,45,0.8,0.8,78,0.00,,OVC,0.00,VWS V14.00,2013-03-13 04:45:00,
2013-03-13 00:50:00,43.5,37.1,29.85,North,0,0.0,0.0,78,0.00,,OVC,0.00,VWS V14.00,2013-03-13 04:50:00,
2013-03-13 00:55:00,43.3,37.2,29.85,NW,315,0.0,0.0,79,0.00,,OVC,0.00,VWS V14.00,2013-03-13 04:55:00,
2013-03-13 01:00:00,43.1,37.0,29.85,WNW,292,0.0,0.0,79,0.00,,OVC,0.00,VWS V14.00,2013-03-13 05:00:00,
2013-03-13 01:05:00,42.9,37.2,29.85,NNE,22,0.0,0.0,80,0.00,,OVC,0.00,VWS V14.00,2013-03-13 05:05:00,
2013-03-13 01:10:00,42.8,37.1,29.85,North,0,0.0,0.0,80,0.00,,OVC,0.00,VWS V14.00,2013-03-13 05:10:00,
2013-03-13 01:15:00,42.6,36.9,29.85,North,0,0.8,0.8,80,0.00,,OVC,0.00,VWS V14.00,2013-03-13 05:15:00,
2013-03-13 01:20:00,42.6,36.9,29.85,NNW,338,0.0,0.0,80,0.00,,OVC,0.00,VWS V14.00,2013-03-13 05:20:00,
2013-03-13 01:25:00,42.4,36.7,29.85,NW,315,0.0,0.0,80,0.00,,OVC,0.00,VWS V14.00,2013-03-13 05:25:00,
2013-03-13 01:30:00,42.4,36.7,29.85,West,270,0.0,0.0,80,0.00,,OVC,0.00,VWS V14.00,2013-03-13 05:30:00,
2013-03-13 01:35:00,42.2,36.8,29.86,North,0,0.0,0.0,81,0.00,,OVC,0.00,VWS V14.00,2013-03-13 05:35:00,
2013-03-13 01:40:00,42.0,36.6,29.85,NNE,22,0.8,0.8,81,0.00,,OVC,0.00,VWS V14.00,2013-03-13 05:40:00,
2013-03-13 01:45:00,42.0,36.6,29.86,North,0,0.0,0.0,81,0.00,,OVC,0.00,VWS V14.00,2013-03-13 05:45:00,
2013-03-13 01:50:00,41.9,36.5,29.85,NNE,22,0.0,0.0,81,0.00,,OVC,0.00,VWS V14.00,2013-03-13 05:50:00,
2013-03-13 01:55:00,41.7,36.3,29.86,NNW,338,0.0,0.0,81,0.00,,OVC,0.00,VWS V14.00,2013-03-13 05:55:00,
2013-03-13 02:00:00,41.5,36.1,29.86,NNW,338,0.0,0.0,81,0.00,,OVC,0.00,VWS V14.00,2013-03-13 06:00:00,
2013-03-13 02:05:00,41.5,36.1,29.86,NW,315,0.0,0.0,81,0.00,,OVC,0.00,VWS V14.00,2013-03-13 06:05:00,
2013-03-13 02:10:00,41.5,36.1,29.85,NW,315,0.0,0.0,81,0.00,,OVC,0.00,VWS V14.00,2013-03-13 06:10:00,
2013-03-13 02:15:00,41.5,36.1,29.85,NW,315,0.0,0.0,81,0.00,,OVC,0.00,VWS V14.00,2013-03-13 06:15:00,
2013-03-13 02:20:00,41.3,35.9,29.86,NW,315,0.0,0.0,81,0.00,,OVC,0.00,VWS V14.00,2013-03-13 06:20:00,
2013-03-13 02:25:00,41.1,36.0,29.86,North,0,0.0,0.0,82,0.00,,OVC,0.00,VWS V14.00,2013-03-13 06:25:00,
2013-03-13 02:30:00,40.8,35.7,29.86,NNW,338,0.0,0.0,82,0.00,,OVC,0.00,VWS V14.00,2013-03-13 06:30:00,
2013-03-13 02:35:00,40.8,35.7,29.85,NW,315,0.0,0.0,82,0.00,,OVC,0.00,VWS V14.00,2013-03-13 06:35:00,
2013-03-13 02:40:00,40.6,35.5,29.86,WNW,292,0.0,0.0,82,0.00,,OVC,0.00,VWS V14.00,2013-03-13 06:40:00,
2013-03-13 02:45:00,40.4,35.3,29.86,NNE,22,0.0,0.0,82,0.00,,OVC,0.00,VWS V14.00,2013-03-13 06:45:00,
2013-03-13 02:50:00,40.4,35.3,29.86,North,0,0.0,0.0,82,0.00,,OVC,0.00,VWS V14.00,2013-03-13 06:50:00,
2013-03-13 02:55:00,40.2,35.2,29.86,North,0,0.0,0.0,82,0.00,,OVC,0.00,VWS V14.00,2013-03-13 06:55:00,
2013-03-13 03:00:00,40.2,35.2,29.86,North,0,0.0,0.0,82,0.00,,OVC,0.00,VWS V14.00,2013-03-13 07:00:00,
2013-03-13 03:05:00,40.2,35.2,29.86,North,0,0.0,0.0,82,0.00,,OVC,0.00,VWS V14.00,2013-03-13 07:05:00,
2013-03-13 03:10:00,40.1,35.1,29.86,NNW,338,0.0,0.0,82,0.00,,OVC,0.00,VWS V14.00,2013-03-13 07:10:00,
2013-03-13 03:15:00,40.2,34.8,29.86,WNW,292,0.0,0.0,81,0.00,,OVC,0.00,VWS V14.00,2013-03-13 07:15:00,
2013-03-13 03:20:00,40.2,34.8,29.86,NW,315,0.0,0.0,81,0.00,,OVC,0.00,VWS V14.00,2013-03-13 07:20:00,
2013-03-13 03:25:00,40.6,35.2,29.86,NNW,338,0.0,0.0,81,0.00,,OVC,0.00,VWS V14.00,2013-03-13 07:25:00,
2013-03-13 03:30:00,40.8,35.4,29.87,NW,315,0.0,0.0,81,0.00,,OVC,0.00,VWS V14.00,2013-03-13 07:30:00,
2013-03-13 03:35:00,40.8,35.4,29.86,NW,315,0.0,0.0,81,0.00,,OVC,0.00,VWS V14.00,2013-03-13 07:35:00,
2013-03-13 03:40:00,40.6,35.2,29.86,WNW,292,0.0,0.0,81,0.00,,OVC,0.00,VWS V14.00,2013-03-13 07:40:00,
2013-03-13 03:45:00,40.6,35.2,29.87,WNW,292,0.0,0.0,81,0.00,,OVC,0.00,VWS V14.00,2013-03-13 07:45:00,
2013-03-13 03:50:00,40.2,34.8,29.87,WNW,292,0.0,0.0,81,0.00,,OVC,0.00,VWS V14.00,2013-03-13 07:50:00,
2013-03-13 03:55:00,40.1,34.8,29.87,NW,315,0.0,0.0,81,0.00,,OVC,0.00,VWS V14.00,2013-03-13 07:55:00,
2013-03-13 04:00:00,39.9,34.9,29.87,NW,315,0.0,0.0,82,0.00,,OVC,0.00,VWS V14.00,2013-03-13 08:00:00,
2013-03-13 04:05:00,39.7,34.7,29.87,WNW,292,0.0,0.0,82,0.00,,OVC,0.00,VWS V14.00,2013-03-13 08:05:00,
2013-03-13 04:10:00,39.3,34.3,29.87,WNW,292,0.0,0.0,82,0.00,,OVC,0.00,VWS V14.00,2013-03-13 08:10:00,
2013-03-13 04:15:00,39.3,34.3,29.87,WNW,292,0.0,0.0,82,0.00,,OVC,0.00,VWS V14.00,2013-03-13 08:15:00,
2013-03-13 04:20:00,39.2,34.2,29.87,WNW,292,0.0,0.0,82,0.00,,OVC,0.00,VWS V14.00,2013-03-13 08:20:00,
2013-03-13 04:25:00,39.0,34.3,29.87,WNW,292,0.0,0.0,83,0.00,,OVC,0.00,VWS V14.00,2013-03-13 08:25:00,
2013-03-13 04:30:00,39.0,34.3,29.87,WNW,292,0.0,0.0,83,0.00,,OVC,0.00,VWS V14.00,2013-03-13 08:30:00,
2013-03-13 04:35:00,38.8,34.1,29.87,WNW,292,0.0,0.0,83,0.00,,OVC,0.00,VWS V14.00,2013-03-13 08:35:00,
2013-03-13 04:40:00,38.8,34.1,29.87,NW,315,0.0,0.0,83,0.00,,OVC,0.00,VWS V14.00,2013-03-13 08:40:00,
2013-03-13 04:45:00,38.6,33.9,29.87,WNW,292,0.0,0.0,83,0.00,,OVC,0.00,VWS V14.00,2013-03-13 08:45:00,
2013-03-13 04:50:00,38.4,34.0,29.87,WNW,292,0.0,0.0,84,0.00,,OVC,0.00,VWS V14.00,2013-03-13 08:50:00,
2013-03-13 04:55:00,38.4,34.0,29.88,WNW,292,0.0,0.0,84,0.00,,OVC,0.00,VWS V14.00,2013-03-13 08:55:00,
2013-03-13 05:00:00,38.3,33.9,29.87,NW,315,0.0,0.0,84,0.00,,OVC,0.00,VWS V14.00,2013-03-13 09:00:00,
2013-03-13 05:05:00,38.1,33.7,29.87,WNW,292,0.0,0.0,84,0.00,,OVC,0.00,VWS V14.00,2013-03-13 09:05:00,
2013-03-13 05:10:00,38.1,33.7,29.88,West,270,0.0,0.0,84,0.00,,OVC,0.00,VWS V14.00,2013-03-13 09:10:00,
2013-03-13 05:15:00,38.1,33.7,29.88,WNW,292,0.0,0.0,84,0.00,,OVC,0.00,VWS V14.00,2013-03-13 09:15:00,
2013-03-13 05:20:00,37.9,33.5,29.88,NW,315,0.0,0.0,84,0.00,,OVC,0.00,VWS V14.00,2013-03-13 09:20:00,
2013-03-13 05:25:00,37.9,33.5,29.88,WNW,292,0.0,0.0,84,0.00,,OVC,0.00,VWS V14.00,2013-03-13 09:25:00,
2013-03-13 05:30:00,37.9,33.5,29.88,WNW,292,0.0,0.0,84,0.00,,OVC,0.00,VWS V14.00,2013-03-13 09:30:00,
2013-03-13 05:35:00,37.9,33.5,29.89,WNW,292,0.0,0.0,84,0.00,,OVC,0.00,VWS V14.00,2013-03-13 09:35:00,
2013-03-13 05:40:00,37.7,33.3,29.89,WNW,292,0.0,0.0,84,0.00,,OVC,0.00,VWS V14.00,2013-03-13 09:40:00,
2013-03-13 05:45:00,37.7,33.3,29.89,WNW,292,0.0,0.0,84,0.00,,OVC,0.00,VWS V14.00,2013-03-13 09:45:00,
2013-03-13 05:50:00,37.5,33.1,29.89,WNW,292,0.0,0.0,84,0.00,,OVC,0.00,VWS V14.00,2013-03-13 09:50:00,
2013-03-13 05:55:00,37.5,33.1,29.89,WNW,292,0.0,0.0,84,0.00,,OVC,0.00,VWS V14.00,2013-03-13 09:55:00,
2013-03-13 06:00:00,37.4,33.0,29.89,WNW,292,0.0,0.0,84,0.00,,OVC,0.00,VWS V14.00,2013-03-13 10:00:00,
2013-03-13 06:05:00,37.4,33.0,29.89,WNW,292,0.0,0.0,84,0.00,,OVC,0.00,VWS V14.00,2013-03-13 10:05:00,
2013-03-13 06:10:00,37.2,32.8,29.89,WNW,292,0.0,0.0,84,0.00,,OVC,0.00,VWS V14.00,2013-03-13 10:10:00,
2013-03-13 06:15:00,37.2,32.8,29.89,WNW,292,0.0,0.0,84,0.00,,OVC,0.00,VWS V14.00,2013-03-13 10:15:00,
2013-03-13 06:20:00,37.2,33.1,29.89,WNW,292,0.0,0.0,85,0.00,,OVC,0.00,VWS V14.00,2013-03-13 10:20:00,
2013-03-13 06:25:00,37.0,32.9,29.90,WNW,292,0.0,0.0,85,0.00,,OVC,0.00,VWS V14.00,2013-03-13 10:25:00,
2013-03-13 06:30:00,36.8,32.7,29.90,WNW,292,0.0,0.0,85,0.00,,OVC,0.00,VWS V14.00,2013-03-13 10:30:00,
2013-03-13 06:35:00,36.6,32.5,29.90,WNW,292,0.0,0.0,85,0.00,,OVC,0.00,VWS V14.00,2013-03-13 10:35:00,
2013-03-13 06:40:00,36.6,32.5,29.90,WNW,292,0.0,0.0,85,0.00,,OVC,0.00,VWS V14.00,2013-03-13 10:40:00,
2013-03-13 06:45:00,36.6,32.5,29.90,WNW,292,0.0,0.0,85,0.00,,OVC,0.00,VWS V14.00,2013-03-13 10:45:00,
2013-03-13 06:50:00,36.5,32.4,29.89,WNW,292,0.0,0.0,85,0.00,,OVC,0.00,VWS V14.00,2013-03-13 10:50:00,
2013-03-13 06:55:00,36.3,32.5,29.89,WNW,292,0.0,0.0,86,0.00,,OVC,0.00,VWS V14.00,2013-03-13 10:55:00,
2013-03-13 07:00:00,36.3,32.5,29.89,WNW,292,0.0,0.0,86,0.00,,OVC,0.00,VWS V14.00,2013-03-13 11:00:00,
2013-03-13 07:05:00,36.1,32.3,29.89,WNW,292,0.0,0.0,86,0.00,,OVC,0.00,VWS V14.00,2013-03-13 11:05:00,
2013-03-13 07:10:00,36.1,32.3,29.89,WNW,292,0.0,0.0,86,0.00,,OVC,0.00,VWS V14.00,2013-03-13 11:10:00,
2013-03-13 07:15:00,36.1,32.3,29.90,WNW,292,0.0,0.0,86,0.00,,OVC,0.00,VWS V14.00,2013-03-13 11:15:00,
2013-03-13 07:20:00,36.1,32.3,29.89,WNW,292,0.0,0.0,86,0.00,,OVC,0.00,VWS V14.00,2013-03-13 11:20:00,
2013-03-13 07:25:00,36.3,32.5,29.89,WNW,292,0.0,0.0,86,0.00,,OVC,0.00,VWS V14.00,2013-03-13 11:25:00,
2013-03-13 07:30:00,36.3,32.5,29.90,WNW,292,0.0,0.0,86,0.00,,OVC,0.00,VWS V14.00,2013-03-13 11:30:00,
2013-03-13 07:35:00,36.6,32.8,29.89,WNW,292,0.0,0.0,86,0.00,,OVC,0.00,VWS V14.00,2013-03-13 11:35:00,
2013-03-13 07:40:00,36.6,32.8,29.89,WNW,292,0.0,0.0,86,0.00,,OVC,0.00,VWS V14.00,2013-03-13 11:40:00,
2013-03-13 07:45:00,37.2,33.4,29.89,WNW,292,0.0,0.0,86,0.00,,OVC,0.00,VWS V14.00,2013-03-13 11:45:00,
2013-03-13 07:50:00,37.2,33.4,29.89,WNW,292,0.0,0.0,86,0.00,,OVC,0.00,VWS V14.00,2013-03-13 11:50:00,
2013-03-13 07:55:00,39.0,35.5,29.90,WNW,292,0.0,0.0,87,0.00,,OVC,0.00,VWS V14.00,2013-03-13 11:55:00,
2013-03-13 07:59:00,46.5,42.8,29.90,WNW,292,0.0,0.0,87,0.00,,OVC,0.00,VWS V14.00,2013-03-13 11:59:00,
2013-03-13 08:04:00,50.7,43.8,29.90,West,270,0.0,0.0,77,0.00,,OVC,0.00,VWS V14.00,2013-03-13 12:04:00,
2013-03-13 08:09:00,51.4,42.3,29.90,West,270,0.0,0.0,71,0.00,,OVC,0.00,VWS V14.00,2013-03-13 12:09:00,
2013-03-13 08:14:00,51.6,41.4,29.90,West,270,0.0,0.0,68,0.00,,OVC,0.00,VWS V14.00,2013-03-13 12:14:00,
2013-03-13 08:19:00,51.9,41.3,29.90,WNW,292,2.9,2.9,67,0.00,,OVC,0.00,VWS V14.00,2013-03-13 12:19:00,
2013-03-13 08:24:00,52.5,41.1,29.90,WNW,292,0.0,0.0,65,0.00,,OVC,0.00,VWS V14.00,2013-03-13 12:24:00,
2013-03-13 08:29:00,52.5,40.7,29.90,WNW,292,0.0,0.0,64,0.00,,OVC,0.00,VWS V14.00,2013-03-13 12:29:00,
2013-03-13 08:34:00,52.3,40.5,29.90,West,270,0.0,0.0,64,0.00,,OVC,0.00,VWS V14.00,2013-03-13 12:34:00,
2013-03-13 08:39:00,51.6,39.0,29.90,WNW,292,0.0,0.0,62,0.00,,OVC,0.00,VWS V14.00,2013-03-13 12:39:00,
2013-03-13 08:44:00,51.9,39.7,29.90,WNW,292,2.2,2.2,63,0.00,,OVC,0.00,VWS V14.00,2013-03-13 12:44:00,
2013-03-13 08:49:00,52.1,39.1,29.90,West,270,0.0,0.0,61,0.00,,OVC,0.00,VWS V14.00,2013-03-13 12:49:00,
2013-03-13 08:54:00,53.0,39.9,29.90,WNW,292,0.0,0.0,61,0.00,,OVC,0.00,VWS V14.00,2013-03-13 12:54:00,
2013-03-13 08:59:00,53.4,39.5,29.90,North,0,0.0,0.0,59,0.00,,OVC,0.00,VWS V14.00,2013-03-13 12:59:00,
2013-03-13 09:04:00,54.1,38.3,29.90,NE,45,1.5,1.5,55,0.00,,OVC,0.00,VWS V14.00,2013-03-13 13:04:00,
2013-03-13 09:09:00,53.9,38.6,29.90,North,0,0.0,0.0,56,0.00,,OVC,0.00,VWS V14.00,2013-03-13 13:09:00,
2013-03-13 09:14:00,53.9,38.1,29.90,East,90,0.0,0.0,55,0.00,,OVC,0.00,VWS V14.00,2013-03-13 13:14:00,
2013-03-13 09:19:00,53.9,38.1,29.90,WNW,292,0.0,0.0,55,0.00,,OVC,0.00,VWS V14.00,2013-03-13 13:19:00,
2013-03-13 09:24:00,54.3,38.5,29.90,NNW,338,0.0,0.0,55,0.00,,OVC,0.00,VWS V14.00,2013-03-13 13:24:00,
2013-03-13 09:29:00,53.9,37.7,29.90,WNW,292,4.9,4.9,54,0.00,,OVC,0.00,VWS V14.00,2013-03-13 13:29:00,
2013-03-13 09:34:00,53.4,37.2,29.90,WNW,292,0.0,0.0,54,0.00,,OVC,0.00,VWS V14.00,2013-03-13 13:34:00,
2013-03-13 09:39:00,53.7,37.0,29.90,NW,315,0.0,0.0,53,0.00,,OVC,0.00,VWS V14.00,2013-03-13 13:39:00,
2013-03-13 09:45:00,53.9,37.7,29.89,West,270,0.0,0.0,54,0.00,,OVC,0.00,VWS V14.00,2013-03-13 13:45:00,
2013-03-13 09:50:00,54.3,37.5,29.89,WNW,292,0.0,0.0,53,0.00,,OVC,0.00,VWS V14.00,2013-03-13 13:50:00,
2013-03-13 09:55:00,54.5,36.8,29.89,North,0,0.0,0.0,51,0.00,,OVC,0.00,VWS V14.00,2013-03-13 13:55:00,
2013-03-13 10:03:00,53.9,35.2,29.90,NW,315,0.0,0.0,49,0.00,,OVC,0.00,VWS V14.00,2013-03-13 14:03:00,
2013-03-13 10:08:00,53.7,36.0,29.89,WNW,292,0.0,0.0,51,0.00,,OVC,0.00,VWS V14.00,2013-03-13 14:08:00,
2013-03-13 10:13:00,53.2,34.0,29.89,West,270,0.8,0.8,48,0.00,,OVC,0.00,VWS V14.00,2013-03-13 14:13:00,
2013-03-13 10:18:00,53.4,35.2,29.89,West,270,2.6,2.6,50,0.00,,OVC,0.00,VWS V14.00,2013-03-13 14:18:00,
2013-03-13 10:23:00,54.3,36.1,29.89,West,270,0.2,0.2,50,0.00,,OVC,0.00,VWS V14.00,2013-03-13 14:23:00,
2013-03-13 10:28:00,55.0,36.7,29.89,NNW,338,0.0,0.0,50,0.00,,OVC,0.00,VWS V14.00,2013-03-13 14:28:00,
2013-03-13 10:33:00,55.2,36.4,29.89,West,270,0.0,0.0,49,0.00,,OVC,0.00,VWS V14.00,2013-03-13 14:33:00,
2013-03-13 10:38:00,55.4,36.1,29.89,NW,315,0.2,0.2,48,0.00,,OVC,0.00,VWS V14.00,2013-03-13 14:38:00,
2013-03-13 10:43:00,55.5,36.7,29.89,WNW,292,0.0,0.0,49,0.00,,OVC,0.00,VWS V14.00,2013-03-13 14:43:00,
2013-03-13 10:48:00,55.5,36.2,29.89,WNW,292,0.6,0.6,48,0.00,,OVC,0.00,VWS V14.00,2013-03-13 14:48:00,
2013-03-13 10:53:00,55.7,36.3,29.89,NW,315,7.1,7.1,48,0.00,,OVC,0.00,VWS V14.00,2013-03-13 14:53:00,
2013-03-13 10:58:00,55.4,34.4,29.89,NNW,338,0.0,0.0,45,0.00,,OVC,0.00,VWS V14.00,2013-03-13 14:58:00,
2013-03-13 11:03:00,55.2,34.8,29.89,WNW,292,0.0,0.0,46,0.00,,OVC,0.00,VWS V14.00,2013-03-13 15:03:00,
2013-03-13 11:08:00,55.2,35.3,29.89,West,270,4.6,4.6,47,0.00,,OVC,0.00,VWS V14.00,2013-03-13 15:08:00,
2013-03-13 11:13:00,55.4,35.5,29.88,WSW,248,0.0,0.0,47,0.00,,OVC,0.00,VWS V14.00,2013-03-13 15:13:00,
2013-03-13 11:18:00,55.5,34.5,29.89,West,270,0.0,0.0,45,0.00,,OVC,0.00,VWS V14.00,2013-03-13 15:18:00,
2013-03-13 11:23:00,55.5,35.1,29.88,West,270,0.0,0.0,46,0.00,,OVC,0.00,VWS V14.00,2013-03-13 15:23:00,
2013-03-13 11:28:00,55.9,34.9,29.88,SW,225,4.6,4.6,45,0.00,,OVC,0.00,VWS V14.00,2013-03-13 15:28:00,
2013-03-13 11:33:00,56.1,35.6,29.89,West,270,3.5,3.5,46,0.00,,OVC,0.00,VWS V14.00,2013-03-13 15:33:00,
2013-03-13 11:38:00,55.9,34.3,29.88,SW,225,4.2,4.2,44,0.00,,OVC,0.00,VWS V14.00,2013-03-13 15:38:00,
2013-03-13 11:43:00,55.7,33.6,29.88,West,270,0.6,0.6,43,0.00,,OVC,0.00,VWS V14.00,2013-03-13 15:43:00,
2013-03-13 11:48:00,55.2,33.7,29.87,West,270,0.0,0.0,44,0.00,,OVC,0.00,VWS V14.00,2013-03-13 15:48:00,
2013-03-13 11:53:00,55.2,33.7,29.87,WNW,292,0.0,0.0,44,0.00,,OVC,0.00,VWS V14.00,2013-03-13 15:53:00,
2013-03-13 11:58:00,55.2,33.7,29.87,WNW,292,1.1,1.1,44,0.00,,OVC,0.00,VWS V14.00,2013-03-13 15:58:00,
2013-03-13 12:03:00,55.7,35.3,29.87,NW,315,4.6,4.6,46,0.00,,OVC,0.00,VWS V14.00,2013-03-13 16:03:00,
2013-03-13 12:08:00,56.3,33.5,29.87,East,90,1.1,1.1,42,0.00,,OVC,0.00,VWS V14.00,2013-03-13 16:08:00,
2013-03-13 12:13:00,56.1,34.5,29.87,NNW,338,1.3,1.3,44,0.00,,OVC,0.00,VWS V14.00,2013-03-13 16:13:00,
2013-03-13 12:18:00,56.1,34.5,29.87,WNW,292,10.5,10.5,44,0.00,,OVC,0.00,VWS V14.00,2013-03-13 16:18:00,
2013-03-13 12:23:00,56.4,33.6,29.87,SSW,202,2.0,2.0,42,0.00,,OVC,0.00,VWS V14.00,2013-03-13 16:23:00,
2013-03-13 12:28:00,56.4,34.8,29.86,West,270,0.0,0.0,44,0.00,,OVC,0.00,VWS V14.00,2013-03-13 16:28:00,
2013-03-13 12:33:00,56.1,32.1,29.86,WNW,292,0.0,0.0,40,0.00,,OVC,0.00,VWS V14.00,2013-03-13 16:33:00,
2013-03-13 12:38:00,55.7,32.4,29.86,WSW,248,3.3,3.3,41,0.00,,OVC,0.00,VWS V14.00,2013-03-13 16:38:00,
2013-03-13 12:43:00,55.2,31.9,29.86,West,270,2.6,2.6,41,0.00,,OVC,0.00,VWS V14.00,2013-03-13 16:43:00,
2013-03-13 12:48:00,55.2,32.5,29.86,NNE,22,3.5,3.5,42,0.00,,OVC,0.00,VWS V14.00,2013-03-13 16:48:00,
2013-03-13 12:53:00,55.5,32.2,29.86,West,270,3.8,3.8,41,0.00,,OVC,0.00,VWS V14.00,2013-03-13 16:53:00,
2013-03-13 12:58:00,55.7,33.0,29.86,WSW,248,4.4,4.4,42,0.00,,OVC,0.00,VWS V14.00,2013-03-13 16:58:00,
2013-03-13 13:03:00,55.9,32.6,29.86,West,270,0.0,0.0,41,0.00,,OVC,0.00,VWS V14.00,2013-03-13 17:03:00,
2013-03-13 13:08:00,55.9,32.6,29.86,WSW,248,0.0,0.0,41,0.00,,OVC,0.00,VWS V14.00,2013-03-13 17:08:00,
2013-03-13 13:13:00,55.9,33.2,29.86,WNW,292,0.0,0.0,42,0.00,,OVC,0.00,VWS V14.00,2013-03-13 17:13:00,
2013-03-13 13:18:00,55.9,32.6,29.85,West,270,0.0,0.0,41,0.00,,OVC,0.00,VWS V14.00,2013-03-13 17:18:00,
2013-03-13 13:23:00,56.1,33.3,29.85,West,270,6.2,6.2,42,0.00,,OVC,0.00,VWS V14.00,2013-03-13 17:23:00,
2013-03-13 13:28:00,56.4,33.0,29.85,West,270,4.2,4.2,41,0.00,,OVC,0.00,VWS V14.00,2013-03-13 17:28:00,
2013-03-13 13:33:00,56.4,32.4,29.85,West,270,0.0,0.0,40,0.00,,OVC,0.00,VWS V14.00,2013-03-13 17:33:00,
2013-03-13 13:38:00,55.9,31.3,29.85,WNW,292,8.2,8.2,39,0.00,,OVC,0.00,VWS V14.00,2013-03-13 17:38:00,
2013-03-13 13:43:00,55.2,31.9,29.85,WNW,292,6.2,6.2,41,0.00,,OVC,0.00,VWS V14.00,2013-03-13 17:43:00,
2013-03-13 13:48:00,55.7,31.8,29.85,West,270,4.4,4.4,40,0.00,,OVC,0.00,VWS V14.00,2013-03-13 17:48:00,
2013-03-13 13:53:00,55.9,32.6,29.84,West,270,2.0,2.0,41,0.00,,OVC,0.00,VWS V14.00,2013-03-13 17:53:00,
2013-03-13 13:58:00,56.3,32.3,29.84,West,270,6.2,6.2,40,0.00,,OVC,0.00,VWS V14.00,2013-03-13 17:58:00,
2013-03-13 14:03:00,55.9,30.7,29.84,NNE,22,4.6,4.6,38,0.00,,OVC,0.00,VWS V14.00,2013-03-13 18:03:00,
2013-03-13 14:08:00,55.5,31.6,29.84,West,270,2.9,2.9,40,0.00,,OVC,0.00,VWS V14.00,2013-03-13 18:08:00,
2013-03-13 14:13:00,55.7,31.8,29.83,WNW,292,0.6,0.6,40,0.00,,OVC,0.00,VWS V14.00,2013-03-13 18:13:00,
2013-03-13 14:18:00,55.7,31.8,29.83,West,270,1.7,1.7,40,0.00,,OVC,0.00,VWS V14.00,2013-03-13 18:18:00,
2013-03-13 14:23:00,55.7,31.8,29.82,West,270,1.7,1.7,40,0.00,,OVC,0.00,VWS V14.00,2013-03-13 18:23:00,
2013-03-13 14:28:00,55.5,30.3,29.83,NE,45,0.0,0.0,38,0.00,,OVC,0.00,VWS V14.00,2013-03-13 18:28:00,
2013-03-13 14:33:00,54.8,30.3,29.82,West,270,0.0,0.0,39,0.00,,OVC,0.00,VWS V14.00,2013-03-13 18:33:00,
2013-03-13 14:38:00,54.6,30.2,29.82,WNW,292,0.0,0.0,39,0.00,,OVC,0.00,VWS V14.00,2013-03-13 18:38:00,
2013-03-13 14:43:00,54.1,30.3,29.82,West,270,5.1,5.1,40,0.00,,OVC,0.00,VWS V14.00,2013-03-13 18:43:00,
2013-03-13 14:48:00,54.3,30.5,29.82,WNW,292,4.6,4.6,40,0.00,,OVC,0.00,VWS V14.00,2013-03-13 18:48:00,
2013-03-13 14:53:00,54.1,30.9,29.82,West,270,0.4,0.4,41,0.00,,OVC,0.00,VWS V14.00,2013-03-13 18:53:00,
2013-03-13 14:58:00,54.5,31.3,29.82,NE,45,2.2,2.2,41,0.00,,OVC,0.00,VWS V14.00,2013-03-13 18:58:00,
2013-03-13 15:03:00,54.1,30.9,29.82,NW,315,0.8,0.8,41,0.00,,OVC,0.00,VWS V14.00,2013-03-13 19:03:00,
2013-03-13 15:08:00,53.7,30.6,29.82,NNW,338,6.7,6.7,41,0.00,,OVC,0.00,VWS V14.00,2013-03-13 19:08:00,
2013-03-13 15:13:00,53.9,30.1,29.81,West,270,7.1,7.1,40,0.00,,OVC,0.00,VWS V14.00,2013-03-13 19:13:00,
2013-03-13 15:18:00,53.9,30.8,29.81,West,270,0.0,0.0,41,0.00,,OVC,0.00,VWS V14.00,2013-03-13 19:18:00,
2013-03-13 15:23:00,53.7,30.6,29.81,West,270,4.2,4.2,41,0.00,,OVC,0.00,VWS V14.00,2013-03-13 19:23:00,
2013-03-13 15:28:00,53.7,30.6,29.81,South,180,2.4,2.4,41,0.00,,OVC,0.00,VWS V14.00,2013-03-13 19:28:00,
2013-03-13 15:33:00,53.4,30.3,29.82,SSW,202,7.3,7.3,41,0.00,,OVC,0.00,VWS V14.00,2013-03-13 19:33:00,
2013-03-13 15:38:00,52.8,29.8,29.81,WNW,292,6.2,6.2,41,0.00,,OVC,0.00,VWS V14.00,2013-03-13 19:38:00,
2013-03-13 15:43:00,52.8,30.4,29.81,West,270,6.4,6.4,42,0.00,,OVC,0.00,VWS V14.00,2013-03-13 19:43:00,
2013-03-13 15:48:00,53.4,30.3,29.81,NNE,22,4.6,4.6,41,0.00,,OVC,0.00,VWS V14.00,2013-03-13 19:48:00,
2013-03-13 15:53:00,53.6,30.5,29.81,West,270,5.8,5.8,41,0.00,,OVC,0.00,VWS V14.00,2013-03-13 19:53:00,
2013-03-13 15:58:00,53.9,29.5,29.81,NW,315,0.0,0.0,39,0.00,,OVC,0.00,VWS V14.00,2013-03-13 19:58:00,
2013-03-13 16:03:00,54.1,29.1,29.81,NW,315,4.6,4.6,38,0.00,,OVC,0.00,VWS V14.00,2013-03-13 20:03:00,
2013-03-13 16:08:00,54.3,30.5,29.80,West,270,2.0,2.0,40,0.00,,OVC,0.00,VWS V14.00,2013-03-13 20:08:00,
2013-03-13 16:13:00,54.1,30.3,29.80,WSW,248,0.0,0.0,40,0.00,,OVC,0.00,VWS V14.00,2013-03-13 20:13:00,
2013-03-13 16:18:00,53.9,30.1,29.81,West,270,4.6,4.6,40,0.00,,OVC,0.00,VWS V14.00,2013-03-13 20:18:00,
2013-03-13 16:23:00,53.6,29.9,29.81,SW,225,3.8,3.8,40,0.00,,OVC,0.00,VWS V14.00,2013-03-13 20:23:00,
2013-03-13 16:28:00,52.5,28.9,29.81,West,270,2.4,2.4,40,0.00,,OVC,0.00,VWS V14.00,2013-03-13 20:28:00,
2013-03-13 16:33:00,51.9,29.0,29.82,NW,315,6.7,6.7,41,0.00,,OVC,0.00,VWS V14.00,2013-03-13 20:33:00,
2013-03-13 16:38:00,51.9,29.5,29.82,WSW,248,0.0,0.0,42,0.00,,OVC,0.00,VWS V14.00,2013-03-13 20:38:00,
2013-03-13 16:43:00,52.3,29.3,29.81,West,270,5.1,5.1,41,0.00,,OVC,0.00,VWS V14.00,2013-03-13 20:43:00,
2013-03-13 16:48:00,52.3,29.3,29.82,NW,315,0.0,0.0,41,0.00,,OVC,0.00,VWS V14.00,2013-03-13 20:48:00,
2013-03-13 16:53:00,52.3,29.9,29.82,West,270,3.5,3.5,42,0.00,,OVC,0.00,VWS V14.00,2013-03-13 20:53:00,
2013-03-13 16:58:00,52.5,29.5,29.82,WSW,248,2.9,2.9,41,0.00,,OVC,0.00,VWS V14.00,2013-03-13 20:58:00,
2013-03-13 17:03:00,52.7,29.7,29.82,SSW,202,3.1,3.1,41,0.00,,OVC,0.00,VWS V14.00,2013-03-13 21:03:00,
2013-03-13 17:08:00,51.9,28.4,29.82,WSW,248,1.1,1.1,40,0.00,,OVC,0.00,VWS V14.00,2013-03-13 21:08:00,
2013-03-13 17:13:00,51.6,28.7,29.82,SW,225,0.0,0.0,41,0.00,,OVC,0.00,VWS V14.00,2013-03-13 21:13:00,
2013-03-13 17:18:00,51.4,27.9,29.82,West,270,0.0,0.0,40,0.00,,OVC,0.00,VWS V14.00,2013-03-13 21:18:00,
2013-03-13 17:23:00,51.0,28.7,29.82,WSW,248,1.1,1.1,42,0.00,,OVC,0.00,VWS V14.00,2013-03-13 21:23:00,
2013-03-13 17:28:00,51.0,28.1,29.82,West,270,5.3,5.3,41,0.00,,OVC,0.00,VWS V14.00,2013-03-13 21:28:00,
2013-03-13 17:33:00,50.7,28.5,29.82,West,270,0.0,0.0,42,0.00,,OVC,0.00,VWS V14.00,2013-03-13 21:33:00,
2013-03-13 17:38:00,50.5,27.7,29.82,WSW,248,1.1,1.1,41,0.00,,OVC,0.00,VWS V14.00,2013-03-13 21:38:00,
2013-03-13 17:43:00,50.0,27.8,29.82,West,270,5.8,5.8,42,0.00,,OVC,0.00,VWS V14.00,2013-03-13 21:43:00,
2013-03-13 17:48:00,49.6,28.0,29.82,West,270,0.0,0.0,43,0.00,,OVC,0.00,VWS V14.00,2013-03-13 21:48:00,
2013-03-13 17:53:00,48.9,27.4,29.82,WNW,292,2.6,2.6,43,0.00,,OVC,0.00,VWS V14.00,2013-03-13 21:53:00,
2013-03-13 17:58:00,48.5,27.0,29.83,WNW,292,5.1,5.1,43,0.00,,OVC,0.00,VWS V14.00,2013-03-13 21:58:00,
2013-03-13 18:03:00,48.2,27.3,29.83,WNW,292,3.3,3.3,44,0.00,,OVC,0.00,VWS V14.00,2013-03-13 22:03:00,
2013-03-13 18:08:00,48.0,27.1,29.83,West,270,0.0,0.0,44,0.00,,OVC,0.00,VWS V14.00,2013-03-13 22:08:00,
2013-03-13 18:13:00,48.0,27.1,29.83,WNW,292,2.6,2.6,44,0.00,,OVC,0.00,VWS V14.00,2013-03-13 22:13:00,
2013-03-13 18:18:00,47.8,27.5,29.84,WNW,292,0.0,5.1,45,0.00,,OVC,0.00,VWS V14.00,2013-03-13 22:18:00,
2013-03-13 18:23:00,47.6,27.3,29.84,ESE,112,0.0,0.0,45,0.00,,OVC,0.00,VWS V14.00,2013-03-13 22:23:00,
2013-03-13 18:28:00,47.3,29.1,29.85,NNE,22,2.4,2.4,49,0.00,,OVC,0.00,VWS V14.00,2013-03-13 22:28:00,
2013-03-13 18:33:00,46.4,30.2,29.86,WNW,292,5.1,5.1,53,0.00,,OVC,0.00,VWS V14.00,2013-03-13 22:33:00,
2013-03-13 18:38:00,45.6,30.4,29.86,WNW,292,2.2,2.2,55,0.00,,OVC,0.00,VWS V14.00,2013-03-13 22:38:00,
2013-03-13 18:43:00,45.1,30.4,29.86,WNW,292,2.6,2.6,56,0.00,,OVC,0.00,VWS V14.00,2013-03-13 22:43:00,
2013-03-13 18:48:00,44.7,31.3,29.87,West,270,1.1,1.1,59,0.00,,OVC,0.00,VWS V14.00,2013-03-13 22:48:00,
2013-03-13 18:53:00,44.2,31.2,29.87,NW,315,0.0,0.0,60,0.00,,OVC,0.00,VWS V14.00,2013-03-13 22:53:00,
2013-03-13 18:58:00,44.0,30.6,29.87,West,270,2.6,2.6,59,0.00,,OVC,0.00,VWS V14.00,2013-03-13 22:58:00,
2013-03-13 19:03:00,43.8,30.8,29.87,West,270,3.1,3.1,60,0.00,,OVC,0.00,VWS V14.00,2013-03-13 23:03:00,
2013-03-13 19:08:00,43.5,31.0,29.87,NW,315,0.0,8.0,61,0.00,,OVC,0.00,VWS V14.00,2013-03-13 23:08:00,
2013-03-13 19:13:00,42.9,30.4,29.87,West,270,0.0,0.0,61,0.00,,OVC,0.00,VWS V14.00,2013-03-13 23:13:00,
2013-03-13 19:18:00,42.4,29.9,29.87,West,270,0.0,0.0,61,0.00,,OVC,0.00,VWS V14.00,2013-03-13 23:18:00,
2013-03-13 19:23:00,42.0,29.9,29.87,West,270,0.0,0.0,62,0.00,,OVC,0.00,VWS V14.00,2013-03-13 23:23:00,
2013-03-13 19:28:00,41.7,29.7,29.87,NNW,338,0.0,0.0,62,0.00,,OVC,0.00,VWS V14.00,2013-03-13 23:28:00,
2013-03-13 19:33:00,41.3,29.7,29.87,NW,315,0.0,0.0,63,0.00,,OVC,0.00,VWS V14.00,2013-03-13 23:33:00,
2013-03-13 19:38:00,41.1,29.9,29.87,WNW,292,0.0,0.0,64,0.00,,OVC,0.00,VWS V14.00,2013-03-13 23:38:00,
2013-03-13 19:43:00,40.8,29.6,29.87,West,270,0.0,0.0,64,0.00,,OVC,0.00,VWS V14.00,2013-03-13 23:43:00,
2013-03-13 19:48:00,40.6,29.8,29.87,West,270,0.0,0.0,65,0.00,,OVC,0.00,VWS V14.00,2013-03-13 23:48:00,
2013-03-13 19:53:00,40.2,29.4,29.87,West,270,0.0,0.0,65,0.00,,OVC,0.00,VWS V14.00,2013-03-13 23:53:00,
2013-03-13 19:58:00,39.9,29.1,29.87,West,270,0.0,0.0,65,0.00,,OVC,0.00,VWS V14.00,2013-03-13 23:58:00,
2013-03-13 20:03:00,39.9,29.5,29.87,West,270,0.0,0.0,66,0.00,,OVC,0.00,VWS V14.00,2013-03-14 00:03:00,
2013-03-13 20:08:00,39.7,29.7,29.88,West,270,0.0,0.0,67,0.00,,OVC,0.00,VWS V14.00,2013-03-14 00:08:00,
2013-03-13 20:13:00,39.3,29.3,29.88,SW,225,0.0,0.0,67,0.00,,OVC,0.00,VWS V14.00,2013-03-14 00:13:00,
2013-03-13 20:18:00,39.2,29.2,29.88,West,270,0.0,0.0,67,0.00,,OVC,0.00,VWS V14.00,2013-03-14 00:18:00,
2013-03-13 20:23:00,39.0,29.4,29.88,West,270,0.0,0.0,68,0.00,,OVC,0.00,VWS V14.00,2013-03-14 00:23:00,
2013-03-13 20:28:00,38.8,29.2,29.88,West,270,0.0,0.0,68,0.00,,OVC,0.00,VWS V14.00,2013-03-14 00:28:00,
2013-03-13 20:33:00,38.8,29.2,29.88,WSW,248,0.0,0.0,68,0.00,,OVC,0.00,VWS V14.00,2013-03-14 00:33:00,
2013-03-13 20:38:00,38.8,29.5,29.88,West,270,0.0,0.0,69,0.00,,OVC,0.00,VWS V14.00,2013-03-14 00:38:00,
2013-03-13 20:43:00,38.4,29.1,29.88,WSW,248,0.0,0.0,69,0.00,,OVC,0.00,VWS V14.00,2013-03-14 00:43:00,
2013-03-13 20:48:00,38.4,29.1,29.89,WSW,248,0.0,0.0,69,0.00,,OVC,0.00,VWS V14.00,2013-03-14 00:48:00,
2013-03-13 20:53:00,38.4,29.1,29.88,SW,225,0.0,0.0,69,0.00,,OVC,0.00,VWS V14.00,2013-03-14 00:53:00,
2013-03-13 20:58:00,38.4,29.1,29.89,West,270,0.0,0.0,69,0.00,,OVC,0.00,VWS V14.00,2013-03-14 00:58:00,
2013-03-13 21:03:00,38.4,29.5,29.88,WSW,248,0.0,0.0,70,0.00,,OVC,0.00,VWS V14.00,2013-03-14 01:03:00,
2013-03-13 21:08:00,38.3,29.4,29.88,West,270,0.0,0.0,70,0.00,,OVC,0.00,VWS V14.00,2013-03-14 01:08:00,
2013-03-13 21:13:00,38.1,29.2,29.89,West,270,0.0,0.0,70,0.00,,OVC,0.00,VWS V14.00,2013-03-14 01:13:00,
2013-03-13 21:18:00,37.9,29.4,29.89,WSW,248,0.0,0.0,71,0.00,,OVC,0.00,VWS V14.00,2013-03-14 01:18:00,
2013-03-13 21:23:00,37.9,29.4,29.89,WSW,248,0.0,0.0,71,0.00,,OVC,0.00,VWS V14.00,2013-03-14 01:23:00,
2013-03-13 21:28:00,37.7,29.2,29.89,WSW,248,0.0,0.0,71,0.00,,OVC,0.00,VWS V14.00,2013-03-14 01:28:00,
2013-03-13 21:33:00,37.9,29.4,29.89,West,270,0.0,0.0,71,0.00,,OVC,0.00,VWS V14.00,2013-03-14 01:33:00,
2013-03-13 21:38:00,37.9,29.4,29.89,WSW,248,0.0,0.0,71,0.00,,OVC,0.00,VWS V14.00,2013-03-14 01:38:00,
2013-03-13 21:43:00,37.9,29.4,29.89,West,270,0.0,0.0,71,0.00,,OVC,0.00,VWS V14.00,2013-03-14 01:43:00,
2013-03-13 21:48:00,37.7,29.2,29.89,WNW,292,0.0,0.0,71,0.00,,OVC,0.00,VWS V14.00,2013-03-14 01:48:00,
2013-03-13 21:53:00,37.5,29.0,29.89,WSW,248,0.0,0.0,71,0.00,,OVC,0.00,VWS V14.00,2013-03-14 01:53:00,
2013-03-13 21:58:00,37.5,29.3,29.90,West,270,0.0,0.0,72,0.00,,OVC,0.00,VWS V14.00,2013-03-14 01:58:00,
2013-03-13 22:03:00,37.4,29.2,29.90,WSW,248,0.0,3.5,72,0.00,,OVC,0.00,VWS V14.00,2013-03-14 02:03:00,
2013-03-13 22:08:00,37.4,29.2,29.90,WNW,292,0.0,0.0,72,0.00,,OVC,0.00,VWS V14.00,2013-03-14 02:08:00,
2013-03-13 22:13:00,37.2,29.0,29.90,West,270,0.0,0.0,72,0.00,,OVC,0.00,VWS V14.00,2013-03-14 02:13:00,
2013-03-13 22:18:00,37.2,29.0,29.90,West,270,0.0,0.0,72,0.00,,OVC,0.00,VWS V14.00,2013-03-14 02:18:00,
2013-03-13 22:23:00,37.2,29.0,29.90,WNW,292,1.1,1.1,72,0.00,,OVC,0.00,VWS V14.00,2013-03-14 02:23:00,
2013-03-13 22:28:00,37.2,28.7,29.90,West,270,0.0,0.0,71,0.00,,OVC,0.00,VWS V14.00,2013-03-14 02:28:00,
2013-03-13 22:33:00,37.2,28.7,29.91,WSW,248,0.0,0.0,71,0.00,,OVC,0.00,VWS V14.00,2013-03-14 02:33:00,
2013-03-13 22:38:00,37.2,28.7,29.90,West,270,0.0,0.0,71,0.00,,OVC,0.00,VWS V14.00,2013-03-14 02:38:00,
2013-03-13 22:43:00,37.2,28.7,29.90,NW,315,0.0,0.0,71,0.00,,OVC,0.00,VWS V14.00,2013-03-14 02:43:00,
2013-03-13 22:48:00,37.2,28.7,29.90,WNW,292,0.0,0.0,71,0.00,,OVC,0.00,VWS V14.00,2013-03-14 02:48:00,
2013-03-13 22:53:00,37.2,28.3,29.91,NNW,338,2.4,2.4,70,0.00,,OVC,0.00,VWS V14.00,2013-03-14 02:53:00,
2013-03-13 22:58:00,37.2,28.3,29.91,West,270,8.0,8.0,70,0.00,,OVC,0.00,VWS V14.00,2013-03-14 02:58:00,
2013-03-13 23:03:00,37.2,28.0,29.90,West,270,0.0,0.0,69,0.00,,OVC,0.00,VWS V14.00,2013-03-14 03:03:00,
2013-03-13 23:08:00,37.2,27.6,29.91,WNW,292,2.6,2.6,68,0.00,,OVC,0.00,VWS V14.00,2013-03-14 03:08:00,
2013-03-13 23:13:00,37.2,27.3,29.91,WNW,292,2.0,2.0,67,0.00,,OVC,0.00,VWS V14.00,2013-03-14 03:13:00,
2013-03-13 23:18:00,37.2,27.3,29.90,WNW,292,6.2,6.2,67,0.00,,OVC,0.00,VWS V14.00,2013-03-14 03:18:00,
2013-03-13 23:23:00,37.2,26.9,29.91,NW,315,0.0,0.0,66,0.00,,OVC,0.00,VWS V14.00,2013-03-14 03:23:00,
2013-03-13 23:28:00,37.2,26.9,29.90,NW,315,3.3,3.3,66,0.00,,OVC,0.00,VWS V14.00,2013-03-14 03:28:00,
2013-03-13 23:33:00,37.2,26.5,29.91,NW,315,1.3,1.3,65,0.00,,OVC,0.00,VWS V14.00,2013-03-14 03:33:00,
2013-03-13 23:38:00,37.2,26.5,29.91,West,270,0.0,0.0,65,0.00,,OVC,0.00,VWS V14.00,2013-03-14 03:38:00,
2013-03-13 23:43:00,37.0,26.3,29.91,WNW,292,0.0,0.0,65,0.00,,OVC,0.00,VWS V14.00,2013-03-14 03:43:00,
2013-03-13 23:48:00,37.0,26.3,29.91,WNW,292,5.1,5.1,65,0.00,,OVC,0.00,VWS V14.00,2013-03-14 03:48:00,
2013-03-13 23:53:00,37.0,26.3,29.91,SW,225,0.0,0.0,65,0.00,,OVC,0.00,VWS V14.00,2013-03-14 03:53:00,
2013-03-13 23:58:00,37.0,26.3,29.91,WNW,292,2.0,2.0,65,0.00,,OVC,0.00,VWS V14.00,2013-03-14 03:58:00,